Time,TemperatureF,DewpointF,PressureIn,WindDirection,WindDirectionDegrees,WindSpeedMPH,WindSpeedGustMPH,Humidity,HourlyPrecipIn,Conditions,Clouds,dailyrainin,SoftwareType,DateUTC
2013-04-09 00:02:00,46.0,42.0,-100.00,NE,44,3.0,6.0,85,-99.99,,,-99.99,,2013-04-09 07:02:00,
2013-04-09 00:12:00,46.0,42.0,-100.00,NE,41,3.0,6.0,86,-99.99,,,-99.99,,2013-04-09 07:12:00,
2013-04-09 00:22:00,46.0,42.0,-100.00,NE,44,3.0,5.0,86,-99.99,,,-99.99,,2013-04-09 07:22:00,
2013-04-09 00:32:00,46.0,42.0,-100.00,NE,40,3.0,4.0,86,-99.99,,,-99.99,,2013-04-09 07:32:00,
2013-04-09 00:42:00,45.0,41.0,-100.00,NE,43,4.0,6.0,86,-99.99,,,-99.99,,2013-04-09 07:42:00,
2013-04-09 00:52:00,45.0,41.0,-100.00,NNE,28,4.0,6.0,86,-99.99,,,-99.99,,2013-04-09 07:52:00,
2013-04-09 01:02:00,45.0,41.0,-100.00,ENE,69,2.0,5.0,87,-99.99,,,-99.99,,2013-04-09 08:02:00,
2013-04-09 01:12:00,44.0,40.0,-100.00,ENE,61,2.0,4.0,87,-99.99,,,-99.99,,2013-04-09 08:12:00,
2013-04-09 01:22:00,43.0,40.0,-100.00,NE,42,3.0,5.0,88,-99.99,,,-99.99,,2013-04-09 08:22:00,
2013-04-09 01:32:00,43.0,40.0,-100.00,NE,41,4.0,6.0,88,-99.99,,,-99.99,,2013-04-09 08:32:00,
2013-04-09 01:42:00,43.0,40.0,-100.00,NNE,32,4.0,7.0,89,-99.99,,,-99.99,,2013-04-09 08:42:00,
2013-04-09 01:52:00,43.0,40.0,-100.00,NE,45,3.0,5.0,88,-99.99,,,-99.99,,2013-04-09 08:52:00,
2013-04-09 02:01:00,43.0,40.0,-100.00,NE,47,4.0,5.0,88,-99.99,,,-99.99,,2013-04-09 09:01:00,
2013-04-09 02:12:00,43.0,40.0,-100.00,NE,41,4.0,6.0,89,-99.99,,,-99.99,,2013-04-09 09:12:00,
2013-04-09 02:22:00,43.0,40.0,-100.00,NE,46,5.0,6.0,89,-99.99,,,-99.99,,2013-04-09 09:22:00,
2013-04-09 02:32:00,43.0,40.0,-100.00,NE,52,5.0,6.0,89,-99.99,,,-99.99,,2013-04-09 09:32:00,
2013-04-09 02:43:00,42.0,39.0,-100.00,NE,55,4.0,6.0,89,-99.99,,,-99.99,,2013-04-09 09:43:00,
2013-04-09 02:52:00,41.0,38.0,-100.00,NE,50,5.0,7.0,90,-99.99,,,-99.99,,2013-04-09 09:52:00,
2013-04-09 03:03:00,41.0,39.0,-100.00,NE,39,3.0,5.0,91,-99.99,,,-99.99,,2013-04-09 10:03:00,
2013-04-09 03:12:00,41.0,39.0,-100.00,NE,45,4.0,7.0,91,-99.99,,,-99.99,,2013-04-09 10:12:00,
2013-04-09 03:23:00,41.0,38.0,-100.00,NE,38,3.0,5.0,90,-99.99,,,-99.99,,2013-04-09 10:23:00,
2013-04-09 03:32:00,41.0,39.0,-100.00,NE,43,4.0,6.0,91,-99.99,,,-99.99,,2013-04-09 10:32:00,
2013-04-09 03:42:00,41.0,39.0,-100.00,NE,46,3.0,6.0,91,-99.99,,,-99.99,,2013-04-09 10:42:00,
2013-04-09 03:52:00,41.0,39.0,-100.00,NE,39,3.0,5.0,91,-99.99,,,-99.99,,2013-04-09 10:52:00,
2013-04-09 04:02:00,40.0,38.0,-100.00,NE,48,3.0,6.0,91,-99.99,,,-99.99,,2013-04-09 11:02:00,
2013-04-09 04:12:00,40.0,38.0,-100.00,NE,54,4.0,6.0,91,-99.99,,,-99.99,,2013-04-09 11:12:00,
2013-04-09 04:22:00,40.0,38.0,-100.00,ENE,59,5.0,6.0,92,-99.99,,,-99.99,,2013-04-09 11:22:00,
2013-04-09 04:32:00,39.0,37.0,-100.00,NE,55,4.0,6.0,92,-99.99,,,-99.99,,2013-04-09 11:32:00,
2013-04-09 04:42:00,39.0,37.0,-100.00,NE,53,5.0,9.0,92,-99.99,,,-99.99,,2013-04-09 11:42:00,
2013-04-09 04:52:00,39.0,37.0,-100.00,NE,44,4.0,7.0,93,-99.99,,,-99.99,,2013-04-09 11:52:00,
2013-04-09 05:02:00,39.0,37.0,-100.00,ENE,58,4.0,6.0,92,-99.99,,,-99.99,,2013-04-09 12:02:00,
2013-04-09 05:12:00,39.0,37.0,-100.00,NE,44,4.0,5.0,93,-99.99,,,-99.99,,2013-04-09 12:12:00,
2013-04-09 05:22:00,39.0,37.0,-100.00,ENE,58,5.0,6.0,93,-99.99,,,-99.99,,2013-04-09 12:22:00,
2013-04-09 05:32:00,39.0,37.0,-100.00,NE,53,4.0,5.0,93,-99.99,,,-99.99,,2013-04-09 12:32:00,
2013-04-09 05:42:00,39.0,37.0,-100.00,ENE,57,4.0,6.0,93,-99.99,,,-99.99,,2013-04-09 12:42:00,
2013-04-09 05:52:00,38.0,36.0,-100.00,NE,50,5.0,7.0,93,-99.99,,,-99.99,,2013-04-09 12:52:00,
2013-04-09 06:02:00,38.0,36.0,-100.00,NE,48,4.0,6.0,94,-99.99,,,-99.99,,2013-04-09 13:02:00,
2013-04-09 06:12:00,38.0,36.0,-100.00,NE,51,4.0,7.0,94,-99.99,,,-99.99,,2013-04-09 13:12:00,
2013-04-09 06:22:00,38.0,36.0,-100.00,NE,54,4.0,7.0,94,-99.99,,,-99.99,,2013-04-09 13:22:00,
2013-04-09 06:32:00,38.0,36.0,-100.00,NE,53,4.0,6.0,94,-99.99,,,-99.99,,2013-04-09 13:32:00,
2013-04-09 06:42:00,37.0,35.0,-100.00,ENE,65,5.0,7.0,94,-99.99,,,-99.99,,2013-04-09 13:42:00,
2013-04-09 06:52:00,37.0,35.0,-100.00,NE,54,5.0,7.0,94,-99.99,,,-99.99,,2013-04-09 13:52:00,
2013-04-09 07:02:00,37.0,35.0,-100.00,NE,56,5.0,7.0,94,-99.99,,,-99.99,,2013-04-09 14:02:00,
2013-04-09 07:12:00,37.0,36.0,-100.00,ENE,57,5.0,6.0,95,-99.99,,,-99.99,,2013-04-09 14:12:00,
2013-04-09 07:22:00,37.0,36.0,-100.00,ENE,58,5.0,7.0,95,-99.99,,,-99.99,,2013-04-09 14:22:00,
2013-04-09 07:32:00,37.0,36.0,-100.00,NE,51,5.0,7.0,95,-99.99,,,-99.99,,2013-04-09 14:32:00,
2013-04-09 07:42:00,38.0,37.0,-100.00,NE,52,5.0,8.0,95,-99.99,,,-99.99,,2013-04-09 14:42:00,
2013-04-09 07:51:00,38.0,36.0,-100.00,ENE,60,5.0,7.0,94,-99.99,,,-99.99,,2013-04-09 14:51:00,
2013-04-09 08:01:00,39.0,37.0,-100.00,ENE,63,4.0,6.0,94,-99.99,,,-99.99,,2013-04-09 15:01:00,
2013-04-09 08:12:00,41.0,39.0,-100.00,ENE,68,4.0,5.0,92,-99.99,,,-99.99,,2013-04-09 15:12:00,
2013-04-09 08:22:00,43.0,40.0,-100.00,ENE,67,4.0,7.0,90,-99.99,,,-99.99,,2013-04-09 15:22:00,
2013-04-09 08:33:00,45.0,41.0,-100.00,ENE,59,4.0,5.0,87,-99.99,,,-99.99,,2013-04-09 15:33:00,
2013-04-09 08:42:00,47.0,42.0,-100.00,ENE,78,2.0,5.0,83,-99.99,,,-99.99,,2013-04-09 15:42:00,
2013-04-09 08:52:00,50.0,43.0,-100.00,ENE,59,2.0,4.0,78,-99.99,,,-99.99,,2013-04-09 15:52:00,
2013-04-09 09:03:00,50.0,43.0,-100.00,ENE,59,2.0,4.0,78,-99.99,,,-99.99,,2013-04-09 16:03:00,
2013-04-09 09:12:00,56.0,45.0,-100.00,East,80,2.0,4.0,66,-99.99,,,-99.99,,2013-04-09 16:12:00,
2013-04-09 09:23:00,57.0,45.0,-100.00,South,175,2.0,5.0,63,-99.99,,,-99.99,,2013-04-09 16:23:00,
2013-04-09 09:33:00,58.0,45.0,-100.00,SSE,163,3.0,5.0,61,-99.99,,,-99.99,,2013-04-09 16:33:00,
2013-04-09 09:42:00,58.0,44.0,-100.00,SSW,204,3.0,5.0,59,-99.99,,,-99.99,,2013-04-09 16:42:00,
2013-04-09 09:52:00,59.0,43.0,-100.00,South,169,2.0,4.0,55,-99.99,,,-99.99,,2013-04-09 16:52:00,
2013-04-09 10:02:00,59.0,43.0,-100.00,South,169,2.0,4.0,55,-99.99,,,-99.99,,2013-04-09 17:02:00,
2013-04-09 10:12:00,60.0,43.0,-100.00,SSW,199,5.0,8.0,53,-99.99,,,-99.99,,2013-04-09 17:12:00,
2013-04-09 10:22:00,60.0,42.0,-100.00,SSW,207,5.0,9.0,52,-99.99,,,-99.99,,2013-04-09 17:22:00,
2013-04-09 10:32:00,61.0,42.0,-100.00,SW,222,5.0,9.0,49,-99.99,,,-99.99,,2013-04-09 17:32:00,
2013-04-09 10:42:00,62.0,41.0,-100.00,SW,236,4.0,14.0,46,-99.99,,,-99.99,,2013-04-09 17:42:00,
2013-04-09 10:53:00,62.0,39.0,-100.00,West,280,5.0,10.0,42,-99.99,,,-99.99,,2013-04-09 17:53:00,
2013-04-09 11:02:00,63.0,42.0,-100.00,SSW,211,6.0,10.0,46,-99.99,,,-99.99,,2013-04-09 18:02:00,
2013-04-09 11:12:00,63.0,43.0,-100.00,SSW,210,7.0,12.0,48,-99.99,,,-99.99,,2013-04-09 18:12:00,
2013-04-09 11:22:00,63.0,44.0,-100.00,SSW,213,8.0,13.0,49,-99.99,,,-99.99,,2013-04-09 18:22:00,
2013-04-09 11:30:00,62.0,47.0,-100.00,SW,226,10.0,16.0,57,-99.99,,,-99.99,,2013-04-09 18:30:00,
2013-04-09 11:32:00,63.0,45.0,-100.00,SW,216,9.0,13.0,52,-99.99,,,-99.99,,2013-04-09 18:32:00,
2013-04-09 11:42:00,62.0,45.0,-100.00,SW,216,7.0,11.0,53,-99.99,,,-99.99,,2013-04-09 18:42:00,
2013-04-09 11:52:00,63.0,46.0,-100.00,SW,219,9.0,14.0,54,-99.99,,,-99.99,,2013-04-09 18:52:00,
2013-04-09 12:02:00,63.0,46.0,-100.00,SW,219,9.0,14.0,54,-99.99,,,-99.99,,2013-04-09 19:02:00,
2013-04-09 12:11:00,63.0,46.0,-100.00,SW,219,9.0,14.0,54,-99.99,,,-99.99,,2013-04-09 19:11:00,
2013-04-09 12:22:00,62.0,47.0,-100.00,SW,226,10.0,16.0,57,-99.99,,,-99.99,,2013-04-09 19:22:00,
2013-04-09 12:52:00,63.0,45.0,-100.00,SSW,202,8.0,13.0,52,-99.99,,,-99.99,,2013-04-09 19:52:00,
2013-04-09 13:02:00,64.0,45.0,-100.00,SSW,204,8.0,16.0,51,-99.99,,,-99.99,,2013-04-09 20:02:00,
2013-04-09 13:12:00,64.0,45.0,-100.00,SSW,204,9.0,15.0,51,-99.99,,,-99.99,,2013-04-09 20:12:00,
2013-04-09 13:22:00,63.0,45.0,-100.00,SSW,211,8.0,14.0,52,-99.99,,,-99.99,,2013-04-09 20:22:00,
2013-04-09 13:32:00,64.0,44.0,-100.00,South,190,8.0,11.0,49,-99.99,,,-99.99,,2013-04-09 20:32:00,
2013-04-09 13:42:00,64.0,43.0,-100.00,SW,223,9.0,20.0,47,-99.99,,,-99.99,,2013-04-09 20:42:00,
2013-04-09 13:52:00,64.0,42.0,-100.00,SW,218,10.0,16.0,45,-99.99,,,-99.99,,2013-04-09 20:52:00,
2013-04-09 14:02:00,65.0,39.0,-100.00,SW,230,10.0,17.0,38,-99.99,,,-99.99,,2013-04-09 21:02:00,
2013-04-09 14:12:00,66.0,38.0,-100.00,SW,220,9.0,14.0,35,-99.99,,,-99.99,,2013-04-09 21:12:00,
2013-04-09 14:22:00,66.0,38.0,-100.00,SW,220,9.0,14.0,35,-99.99,,,-99.99,,2013-04-09 21:22:00,
2013-04-09 14:32:00,66.0,34.0,-100.00,SSW,211,8.0,14.0,31,-99.99,,,-99.99,,2013-04-09 21:32:00,
2013-04-09 14:42:00,66.0,34.0,-100.00,SSW,211,8.0,14.0,31,-99.99,,,-99.99,,2013-04-09 21:42:00,
2013-04-09 14:53:00,69.0,34.0,-100.00,SSW,212,7.0,14.0,27,-99.99,,,-99.99,,2013-04-09 21:53:00,
2013-04-09 15:02:00,69.0,32.0,-100.00,SW,236,10.0,17.0,25,-99.99,,,-99.99,,2013-04-09 22:02:00,
2013-04-09 15:12:00,68.0,37.0,-100.00,SW,214,10.0,15.0,32,-99.99,,,-99.99,,2013-04-09 22:12:00,
2013-04-09 15:22:00,67.0,38.0,-100.00,SW,214,9.0,14.0,35,-99.99,,,-99.99,,2013-04-09 22:22:00,
2013-04-09 15:32:00,67.0,34.0,-100.00,WSW,237,12.0,19.0,29,-99.99,,,-99.99,,2013-04-09 22:32:00,
2013-04-09 15:42:00,67.0,32.0,-100.00,WSW,239,12.0,18.0,27,-99.99,,,-99.99,,2013-04-09 22:42:00,
2013-04-09 15:52:00,67.0,31.0,-100.00,SW,235,12.0,20.0,26,-99.99,,,-99.99,,2013-04-09 22:52:00,
2013-04-09 16:02:00,67.0,31.0,-100.00,WSW,237,10.0,18.0,26,-99.99,,,-99.99,,2013-04-09 23:02:00,
2013-04-09 16:12:00,67.0,31.0,-100.00,SW,227,9.0,17.0,26,-99.99,,,-99.99,,2013-04-09 23:12:00,
2013-04-09 16:22:00,68.0,31.0,-100.00,SW,228,9.0,19.0,25,-99.99,,,-99.99,,2013-04-09 23:22:00,
2013-04-09 16:32:00,68.0,28.0,-100.00,WSW,244,9.0,17.0,22,-99.99,,,-99.99,,2013-04-09 23:32:00,
2013-04-09 16:42:00,68.0,25.0,-100.00,WSW,249,9.0,21.0,20,-99.99,,,-99.99,,2013-04-09 23:42:00,
2013-04-09 16:52:00,68.0,24.0,-100.00,West,262,10.0,19.0,19,-99.99,,,-99.99,,2013-04-09 23:52:00,
2013-04-09 17:02:00,68.0,23.0,-100.00,WSW,252,8.0,14.0,18,-99.99,,,-99.99,,2013-04-10 00:02:00,
2013-04-09 17:11:00,68.0,23.0,-100.00,WSW,252,8.0,14.0,18,-99.99,,,-99.99,,2013-04-10 00:11:00,
2013-04-09 17:22:00,68.0,22.0,-100.00,WSW,242,10.0,17.0,17,-99.99,,,-99.99,,2013-04-10 00:22:00,
2013-04-09 17:32:00,68.0,22.0,-100.00,WSW,250,8.0,14.0,17,-99.99,,,-99.99,,2013-04-10 00:32:00,
2013-04-09 17:42:00,68.0,22.0,-100.00,WSW,254,9.0,16.0,17,-99.99,,,-99.99,,2013-04-10 00:42:00,
2013-04-09 17:52:00,68.0,22.0,-100.00,WSW,242,8.0,13.0,17,-99.99,,,-99.99,,2013-04-10 00:52:00,
2013-04-09 18:01:00,67.0,19.0,-100.00,West,266,6.0,14.0,16,-99.99,,,-99.99,,2013-04-10 01:01:00,
2013-04-09 18:11:00,68.0,20.0,-100.00,WSW,249,7.0,14.0,16,-99.99,,,-99.99,,2013-04-10 01:11:00,
2013-04-09 18:22:00,68.0,19.0,-100.00,West,259,6.0,12.0,15,-99.99,,,-99.99,,2013-04-10 01:22:00,
2013-04-09 18:31:00,67.0,19.0,-100.00,West,264,6.0,16.0,16,-99.99,,,-99.99,,2013-04-10 01:31:00,
2013-04-09 18:42:00,66.0,21.0,-100.00,WSW,251,8.0,14.0,18,-99.99,,,-99.99,,2013-04-10 01:42:00,
2013-04-09 18:52:00,66.0,23.0,-100.00,West,261,5.0,10.0,19,-99.99,,,-99.99,,2013-04-10 01:52:00,
2013-04-09 19:01:00,65.0,24.0,-100.00,West,265,7.0,13.0,21,-99.99,,,-99.99,,2013-04-10 02:01:00,
2013-04-09 19:12:00,65.0,24.0,-100.00,WNW,289,6.0,14.0,21,-99.99,,,-99.99,,2013-04-10 02:12:00,
2013-04-09 19:21:00,64.0,24.0,-100.00,WNW,292,4.0,11.0,22,-99.99,,,-99.99,,2013-04-10 02:21:00,
2013-04-09 19:32:00,64.0,25.0,-100.00,WNW,296,2.0,4.0,23,-99.99,,,-99.99,,2013-04-10 02:32:00,
2013-04-09 19:42:00,63.0,26.0,-100.00,WSW,254,2.0,5.0,24,-99.99,,,-99.99,,2013-04-10 02:42:00,
2013-04-09 19:52:00,62.0,27.0,-100.00,SW,228,2.0,4.0,26,-99.99,,,-99.99,,2013-04-10 02:52:00,
2013-04-09 20:02:00,62.0,29.0,-100.00,WSW,249,2.0,4.0,28,-99.99,,,-99.99,,2013-04-10 03:02:00,
2013-04-09 20:12:00,61.0,29.0,-100.00,NW,310,2.0,3.0,30,-99.99,,,-99.99,,2013-04-10 03:12:00,
2013-04-09 20:22:00,57.0,27.0,-100.00,NNE,30,1.0,3.0,32,-99.99,,,-99.99,,2013-04-10 03:22:00,
2013-04-09 20:32:00,56.0,28.0,-100.00,ENE,57,3.0,4.0,34,-99.99,,,-99.99,,2013-04-10 03:32:00,
2013-04-09 20:43:00,55.0,29.0,-100.00,NE,34,2.0,4.0,37,-99.99,,,-99.99,,2013-04-10 03:43:00,
2013-04-09 20:52:00,54.0,29.0,-100.00,NE,48,5.0,7.0,38,-99.99,,,-99.99,,2013-04-10 03:52:00,
2013-04-09 21:02:00,54.0,29.0,-100.00,NE,48,5.0,7.0,38,-99.99,,,-99.99,,2013-04-10 04:02:00,
2013-04-09 21:13:00,52.0,27.0,-100.00,NE,43,5.0,7.0,38,-99.99,,,-99.99,,2013-04-10 04:13:00,
2013-04-09 21:22:00,52.0,28.0,-100.00,NE,40,4.0,6.0,39,-99.99,,,-99.99,,2013-04-10 04:22:00,
2013-04-09 21:33:00,51.0,28.0,-100.00,NE,47,3.0,5.0,41,-99.99,,,-99.99,,2013-04-10 04:33:00,
2013-04-09 21:42:00,50.0,28.0,-100.00,NE,43,2.0,4.0,42,-99.99,,,-99.99,,2013-04-10 04:42:00,
2013-04-09 21:52:00,49.0,28.0,-100.00,NE,51,2.0,4.0,44,-99.99,,,-99.99,,2013-04-10 04:52:00,
2013-04-09 22:02:00,48.0,28.0,-100.00,ENE,62,4.0,6.0,45,-99.99,,,-99.99,,2013-04-10 05:02:00,
2013-04-09 22:12:00,47.0,28.0,-100.00,ENE,61,4.0,6.0,47,-99.99,,,-99.99,,2013-04-10 05:12:00,
2013-04-09 22:32:00,46.0,28.0,-100.00,NE,44,5.0,6.0,50,-99.99,,,-99.99,,2013-04-10 05:32:00,
2013-04-09 22:42:00,45.0,28.0,-100.00,NE,55,5.0,6.0,51,-99.99,,,-99.99,,2013-04-10 05:42:00,
2013-04-09 22:52:00,45.0,28.0,-100.00,NE,46,5.0,7.0,52,-99.99,,,-99.99,,2013-04-10 05:52:00,
2013-04-09 23:02:00,45.0,28.0,-100.00,NE,48,3.0,6.0,52,-99.99,,,-99.99,,2013-04-10 06:02:00,
2013-04-09 23:12:00,45.0,28.0,-100.00,NE,41,4.0,6.0,52,-99.99,,,-99.99,,2013-04-10 06:12:00,
2013-04-09 23:22:00,44.0,28.0,-100.00,NE,49,2.0,5.0,52,-99.99,,,-99.99,,2013-04-10 06:22:00,
2013-04-09 23:32:00,44.0,28.0,-100.00,NE,49,2.0,5.0,52,-99.99,,,-99.99,,2013-04-10 06:32:00,
2013-04-09 23:42:00,44.0,28.0,-100.00,NE,36,5.0,7.0,54,-99.99,,,-99.99,,2013-04-10 06:42:00,
2013-04-09 23:52:00,43.0,28.0,-100.00,NE,45,3.0,6.0,54,-99.99,,,-99.99,,2013-04-10 06:52:00,